www.pogodaiklimat.ru

Погода и климат >> Архив погоды >> Молдова >> Сороки


ПОГОДА в Сороках

  • Прогноз погоды в Сороках
  • Монитор погоды в Сороках
  • Климат города

АРХИВ ПОГОДЫ в Сороках

Время (UTC), дата Ветер
(напр.,м/с)
 
Видим.   Явления Облачность Т
(С)
Тd
(С)
f
(%)
Тe
(С)
Тes
(С)
Комфортность P
(гПа)
Po
(гПа)
Тmin
(С)
Tmax
(С)
R
(мм)
R24
(мм)
S
(см)
00 20.09 В 1 20 км 8/0
[As trans]
+15.1 +5.6 53 +16 +16 1013.8 993.3
03 20.09 В 2 20 км 8/0
[As trans]
+15.0 +5.5 53 +15 +15 1012.8 992.3
06 20.09 В 2 20 км 8/0
[Ac As]
+17.2 +5.5 46 +18 +18 1012.2 991.9 +14.2
09 20.09 ЮВ 2 20 км 8/0
[Ac trans]
+22.7 +5.6 33 +23 +28 комфорт 1011.1 991.2
12 20.09 З 3 20 км 9/0
[Ac As]
+23.9 +6.7 33 +24 +26 комфорт 1010.8 991.0
15 20.09 СВ 2 20 км {дождь} 9/6 1000 м
[Cu med, cong Ac trans]
+19.6 +10.9 57 +21 +22 комфорт 1008.7 988.7
18 20.09 С 1 20 км {дождь} 3/0
[Ac cast]
+17.7 +10.6 63 +19 +19 1007.7 987.6 +24.7 0.4
21 20.09 В 1 20 км 9/0
[As op]
+18.2 +10.6 61 +20 +20 1007.1 987.0
00 21.09 С 1
{14}
20 км ясно +15.9 +12.5 80 +17 +17 1007.8 987.5
03 21.09 ЮЗ 1 20 км ясно +14.4 +11.6 83 +15 +15 1007.3 986.9
06 21.09 Ю 3 20 км 9/6 1000 м
[Sc Ac trans]
+17.2 +13.9 81 +17 +18 1006.9 986.8 +13.5
09 21.09 Ю 1 20 км 9/5 1000 м
[Sc Ac As]
+21.9 +16.2 70 +26 +28 душно 1006.9 987.1
12 21.09 З 5 20 км гроза без осадков {ливн. осадки} 9/5 1000 м
[Cb calv Ac As]
+18.4 +15.6 84 +19 +19 1007.4 987.3
15 21.09 З 3 20 км {гроза} 8/4 1000 м
[Cu Sc Ac trans]
+20.2 +15.6 75 +23 +23 комфорт 1007.2 987.3
18 21.09 штиль 0 20 км {гроза} 3/0
[Ac As]
+15.6 +13.6 88 +15 +15 1008.9 988.6 +25.2 0.3
21 21.09 С 1 20 км ясно +14.7 +13.1 90 +15 +15 1009.6 989.2
00 22.09 З 1 10 км ясно +12.1 +11.0 93 +12 +12 1010.7 990.1
03 22.09 С 2 1000 м слабый дождь 10/10 600 м
[Sc]
+14.4 +13.4 94 +14 +14 1010.7 990.3
06 22.09 В 1 2000 м слабый дождь 10/10 600 м
[Frnb Ns]
+15.3 +14.5 95 +16 +16 1011.9 991.5 +12.0 4
09 22.09 З 2 4000 м гроза, ливневой дождь 10/10 600 м
[Cb calv]
+15.6 +14.8 95 +15 +15 1010.6 990.3
12 22.09 С 4 10 км гроза, ливневой дождь 10/10 600 м
[Cb cap]
+15.0 +14.2 95 +14 +14 1009.1 988.8
15 22.09 штиль 0 10 км гроза, ливневой дождь 10/8 600 м
[Cb cap As op]
+14.6 +13.8 95 +14 +14 1009.7 989.3
18 22.09 В 1 10 км {гроза, ливн. осадки} 9/0
[As op]
+14.3 +13.3 94 +15 +15 1010.0 989.6 +15.9 36
21 22.09 Ю 3 10 км 8/0
[As op Ci fib]
+13.8 +12.5 92 +13 +13 1010.9 990.4
00 23.09 ЮВ 3 10 км 9/0
[As op]
+13.0 +11.9 93 +12 +12 1013.6 993.0
03 23.09 Ю 3 10 км ясно +12.4 +11.1 92 +11 +11 1014.3 993.7
06 23.09 ЮВ 2 10 км 6/0
[Ac As]
+12.8 +11.4 91 +12 +13 1016.6 995.9 +11.5
09 23.09 В 3 20 км 10/6 600 м
[Cb cap As op]
+14.5 +12.4 87 +14 +14 1018.0 997.4
12 23.09 ЮВ 4 20 км 5/5 1000 м
[Cu med, cong]
+18.1 +11.2 64 +18 +20 1017.9 997.6
15 23.09 В 1 20 км 8/0
[Ac As]
+16.9 +12.4 75 +18 +18 1018.1 997.7
18 23.09 Ю 3 10 км ливневой дождь 10/10 600 м
[Cb cap]
+14.2 +12.9 92 +13 +13 1018.8 998.2 +18.4 10
21 23.09 В 2 10 км {ливн. осадки} 8/6 600 м
[Cb cap As trans]
+14.0 +12.9 93 +13 +13 1018.9 998.3
00 24.09 В 1 10 км {ливн. осадки} 8/0
[As trans]
+13.4 +12.1 92 +14 +14 1018.7 998.0
03 24.09 В 1 10 км 8/0
[As trans]
+13.2 +11.8 91 +13 +13 1018.8 998.1
06 24.09 В 1 10 км 10/10 1000 м
[Sc]
+13.4 +12.0 91 +14 +14 1019.0 998.3 +12.9 3
09 24.09 ЮВ 3 10 км 10/10 1000 м
[Cb cap]
+14.4 +12.1 86 +13 +13 1019.3 998.7
12 24.09 В 2 20 км {дождь} 9/8 1000 м
[Cb cap Ac trans]
+16.3 +12.5 78 +16 +17 1020.0 999.5
15 24.09 З 3
{13}
4000 м гроза, ливневой дождь 10/10 600 м
[Cb cap]
+12.2 +10.9 92 +11 +11 1021.8 1001.0
18 24.09 ЮВ 1 4000 м дымка {гроза, ливн. осадки} 5/0
[Ac trans]
+11.9 +10.8 93 +12 +12 1022.1 1001.3 +17.4 12
21 24.09 С 1 4000 м дымка 9/0
[Ac trans]
+11.9 +11.0 94 +12 +12 1023.3 1002.4
00 25.09 С 1 2000 м дымка ясно +9.8 +8.9 94 +9 +9 1024.0 1003.0
03 25.09 штиль 0 2000 м дымка 3/0
[Ac trans]
+8.3 +7.5 95 +7 +7 1024.6 1003.4
06 25.09 штиль 0 500 м туман ?/? +10.4 +9.6 95 +10 +10 1025.7 1004.7 +8.0
09 25.09 ЮВ 1 4000 м дымка {туман} 6/5 1000 м
[Cu hum Ci fib]
+15.8 +15.2 96 +16 +21 1026.0 1005.4
12 25.09 Ю 2 20 км {туман} 4/3 1000 м
[Cu hum Ci fib]
+21.2 +11.3 53 +23 +28 комфорт 1025.7 1005.4
15 25.09 В 1 20 км 8/6 1000 м
[Cu med, cong Ci fib]
+20.8 +12.0 57 +24 +24 комфорт 1025.8 1005.5
18 25.09 С 1 20 км 8/0
[As op]
+17.7 +13.8 78 +19 +19 1026.5 1006.0 +22.0
21 25.09 В 1 20 км ясно +15.5 +10.1 70 +16 +16 1027.0 1006.3
00 26.09 В 2 20 км ясно +14.4 +8.1 66 +14 +14 1027.3 1006.5
03 26.09 СВ 1 20 км 8/0
[Ac As]
+12.8 +6.8 67 +13 +13 1027.9 1007.0
06 26.09 В 2 20 км 9/0
[Ac trans Cs]
+13.2 +6.8 65 +13 +14 1028.9 1008.0 +11.9
09 26.09 В 4 20 км 8/0
[Ac As Ci fib]
+17.2 +4.8 44 +17 +20 1029.0 1008.4
12 26.09 В 4 20 км 8/0
[Ac lent Ci fib]
+18.4 +2.7 35 +18 +21 1028.7 1008.1
15 26.09 СВ 2 20 км 8/0
[Ac und Ci fib]
+17.3 +4.3 42 +18 +18 1028.6 1008.0
18 26.09 СВ 2 20 км 4/0
[Ac trans]
+13.2 +4.9 57 +13 +13 1029.8 1008.9 +19.0

 

Местоположение метеостанции Сороки (Молдова): широта 48.20 долгота 28.30 высота над уровнем моря 173 м.

В архиве по умолчанию представлена погода в Сороках за последнюю неделю. Архивные данные за месяц целиком и за предыдущие месяцы, начиная с января 2011 года, Вы можете получить, выбрав интересующий диапазон дат из раскрывающегося списка и нажав кнопку "Ввод!".

Внимание! Время в таблицах - всемирное. Для получения местного времени необходимо прибавить поправку, которая в Сороках равна 2 ч.

Смотрите также архив погоды в соседних городах и на ближайших метеорологических станциях:

Погода в Каменке (Молдова) (35 км)
Погода в Могилев-Подольском (Винницкая область, Украина) (47 км)
Погода в Бельцах (Молдова) (53 км)
Погода в Рыбнице (Молдова) (72 км)
Погода в Новоднестровске (Черновицкая область, Украина) (75 км)
Погода в Фалештах (Молдова) (82 км)
Погода в Stanca Stefanesti (Румыния) (90 км)
Погода в Бричанах (Молдова) (92 км)
Погода в Бравичах (Молдова) (93 км)
Погода в Жмеринке (Винницкая область, Украина) (96 км)

Пояснения к столбцам:

Ветер - указаны скорость ветра в м/с - средняя за 10 мин, порывы в срок и между сроками (в фигурных скобках) и направление, откуда дует ветер: С - северный, СВ - северо-восточный, В - восточный, ЮВ - юго-восточный, Ю - южный, ЮЗ - юго-западный, З - западный, СЗ - северо-западный.
Видимость - горизонтальная дальность видимости в метрах или километрах. При видимости от 1 до 10 км при отсутствии осадков обычно наблюдается дымка, при ухудшении видимости до 1 км и менее - туман. В сухую погоду видимость может ухудшаться дымом, пылью или мглою.
Явления - указаны атмосферные явления, наблюдавшиеся в срок или в последний час перед сроком; фигурными скобками обозначены явления, наблюдавшиеся между сроками (за 1-3 часа до срока); квадратными скобками обозначены град или гололедные отложения с указанием их диаметра в мм.
Облачность - указаны через наклонную черту общая и нижняя облачность в баллах и высота нижней границы облаков в метрах; квадратными скобками обозначены формы облаков: Ci - перистые, Cs - перисто-слоистые, Cc - перисто-кучевые, Ac - высококучевые, As - высокослоистые, Sc - слоисто-кучевые, Ns - слоисто-дождевые, Cu - кучевые, Cb - кучево-дождевые. Подробнее классификацию облаков см. в Атласе облаков (PDF).
T - Температура воздуха - температура, измеренная на высоте 2 м над землей.
Td - Температура точки росы - температура, при понижении до которой содержащийся в воздухе водяной пар достигнет насыщения.
f - Относительная влажность воздуха - влажноcть воздуха, измеренная на высоте 2 м над землей.
Te - Эффективная температура - температура, которую ощущает одетый по сезону человек в тени. Характеристика душности погоды. При расчете учитывается влияние влажности воздуха и скорости ветра на теплоощущения человека.
Tes - Эффективная температура на солнце - температура, которую ощущает человек, с поправкой на солнечный нагрев. Характеристика знойности погоды. Зависит от высоты солнца над горизонтом, облачности и скорости ветра. Ночью, в пасмурную погоду, а также при ветре 12 м/с и более поправка равна нулю.
P - Атмосферное давление - приведенное к уровню моря атмосферное давление.
Po - Атмосферное давление - измеренное на уровне метеостанции атмосферное давление.
Tmin - Минимальная температура - минимум температуры воздуха на высоте 2 м над землей.
Tmax - Максимальная температура - максимум температуры воздуха на высоте 2 м над землей.
R - Количество осадков - Количество выпавших осадков за период времени, мм. При наведении курсора мыши на число - период времени, за который выпало указанное количество осадков.
R24 - Количество осадков - Количество выпавших осадков за 24 часа, мм.
S - Снежный покров - Высота снежного покрова, см. При наведении курсора мыши на число - состояние снежного покрова и степень покрытия местности в баллах.